GW0536 Weather Reports


Display with metric or nautical units.
time (UTC)temp
F
wind
direction
speed
MPH
gust
MPH
rain 1hr
in
rain 24hr
in
rain mn
in
humidity
%
barometer
mb
20260504173045 86 344 9.0 14.0 0.00 0.00 0.00 74 1014.9
20260504172530 86 350 10.0 14.0 0.00 0.00 0.00 73 1014.9
20260504172030 86 348 6.0 16.0 0.00 0.00 0.00 73 1014.9
20260504171546 86 36 8.0 16.0 0.00 0.00 0.00 73 1014.9
20260504171031 86 55 9.0 16.0 0.00 0.00 0.00 73 1015.0
20260504170530 86 10 9.0 14.0 0.00 0.00 0.00 73 1015.0
20260504151030 84 340 9.0 14.0 0.00 0.00 0.00 74 1016.2
20260504150530 84 352 9.0 15.0 0.00 0.00 0.00 74 1016.1
20260504141033 86 22 8.0 14.0 0.00 0.00 0.00 70 1016.4
20260504140530 87 21 7.0 14.0 0.00 0.00 0.00 67 1016.3
20260504130529 84 36 7.0 17.0 0.00 0.00 0.00 68 1016.2
20260504110529 77 352 1.0 5.0 0.00 0.00 0.00 82 1016.4
20260504100529 75 0 2.0 4.0 0.00 0.00 0.00 82 1016.0
20260504081552 75 0 1.0 6.0 0.00 0.00 0.00 82 1015.3
20260504081031 75 121 1.0 6.0 0.00 0.00 0.00 82 1015.3
20260504080531 75 109 2.0 6.0 0.00 0.00 0.00 82 1015.3
20260504080109 75 144 2.0 7.0 0.00 0.00 0.00 82 1015.3
20260504050532 75 84 1.0 6.0 0.00 0.00 0.00 80 1016.0
20260504045532 75 105 1.0 4.0 0.00 0.00 0.00 80 1016.1
20260504045030 75 116 0.0 7.0 0.00 0.00 0.00 80 1016.2
20260504044546 75 125 1.0 7.0 0.00 0.00 0.00 80 1016.4
20260504044034 75 108 0.0 4.0 0.00 0.00 0.00 80 1016.5
20260504043534 75 0 0.0 4.0 0.00 0.00 0.00 80 1016.6
20260504043045 75 110 1.0 3.0 0.00 0.00 0.00 80 1016.8
20260504042531 75 112 0.0 3.0 0.00 0.00 0.00 80 1016.8
20260504042032 75 0 0.0 2.0 0.00 0.00 0.00 80 1016.8
20260504041546 75 0 0.0 2.0 0.00 0.00 0.00 80 1016.9
20260504041032 75 0 0.0 2.0 0.00 0.00 0.00 80 1017.0
20260504040533 75 0 0.0 2.0 0.00 0.00 0.00 80 1017.0
20260504040106 75 0 0.0 1.0 0.00 0.00 0.00 79 1017.0
20260504035533 76 0 0.0 2.0 0.00 0.00 0.00 79 1017.1
20260504035032 76 0 0.0 2.0 0.00 0.00 0.00 79 1017.2
20260504034541 76 0 0.0 1.0 0.00 0.00 0.00 79 1017.2
20260504034033 76 0 0.0 1.0 0.00 0.00 0.00 79 1017.3
20260504033534 76 0 0.0 3.0 0.00 0.00 0.00 79 1017.3
20260504033046 76 0 0.0 3.0 0.00 0.00 0.00 78 1017.3
20260504032534 76 0 1.0 3.0 0.00 0.00 0.00 78 1017.2
20260504032034 77 0 0.0 2.0 0.00 0.00 0.00 78 1017.3
20260504031545 77 0 0.0 3.0 0.00 0.00 0.00 77 1017.3
20260504031034 77 63 0.0 3.0 0.00 0.00 0.00 77 1017.2
20260504030533 77 0 0.0 2.0 0.00 0.00 0.00 77 1017.3
20260504030045 77 0 0.0 2.0 0.00 0.00 0.00 76 1017.3
20260504025533 77 0 0.0 2.0 0.00 0.00 0.00 76 1017.3
20260504025033 78 0 0.0 1.0 0.00 0.00 0.00 76 1017.2
20260504024547 78 0 0.0 3.0 0.00 0.00 0.00 76 1017.1
20260504024033 78 0 0.0 2.0 0.00 0.00 0.00 76 1017.1
20260504023529 78 0 0.0 2.0 0.00 0.00 0.00 75 1016.8
20260504023047 79 0 0.0 1.0 0.00 0.00 0.00 75 1016.8
20260504022533 79 0 0.0 1.0 0.00 0.00 0.00 75 1016.8
20260504022031 79 100 0.0 1.0 0.00 0.00 0.00 74 1016.7
20260504021540 79 0 0.0 0.0 0.00 0.00 0.00 74 1016.6
20260504021029 79 0 0.0 2.0 0.00 0.00 0.00 74 1016.6
20260504020531 79 0 0.0 1.0 0.00 0.00 0.00 74 1016.6
20260504020039 80 108 0.0 2.0 0.00 0.00 0.00 73 1016.5
20260504015531 80 0 0.0 2.0 0.00 0.00 0.00 73 1016.5
20260504015029 80 0 0.0 4.0 0.00 0.00 0.00 73 1016.3
20260504014557 80 105 1.0 4.0 0.00 0.00 0.00 73 1016.3
20260504014029 80 14 1.0 5.0 0.00 0.00 0.00 73 1016.2
20260504013530 80 136 2.0 5.0 0.00 0.00 0.00 73 1016.2
20260504013045 80 121 3.0 6.0 0.00 0.00 0.00 73 1016.2
20260504012532 80 112 3.0 7.0 0.00 0.00 0.00 74 1016.1
20260504012031 80 130 3.0 8.0 0.00 0.00 0.00 75 1016.1
20260504011546 80 122 4.0 8.0 0.00 0.00 0.00 76 1016.0
20260504011030 80 120 4.0 9.0 0.00 0.00 0.00 76 1016.0
20260504010531 80 112 2.0 9.0 0.00 0.00 0.00 77 1016.0
20260504010050 80 98 3.0 7.0 0.00 0.00 0.00 78 1016.0
20260504005528 80 121 2.0 7.0 0.00 0.00 0.00 78 1015.9
20260504005031 80 130 3.0 7.0 0.00 0.00 0.00 78 1016.0
20260504004545 80 127 2.0 6.0 0.00 0.00 0.00 78 1015.9
20260504004031 80 107 2.0 6.0 0.00 0.00 0.00 78 1015.9
20260504003532 81 111 1.0 4.0 0.00 0.00 0.00 78 1015.8
20260504003040 81 42 1.0 4.0 0.00 0.00 0.00 78 1015.8
20260504002530 81 0 0.0 4.0 0.00 0.00 0.00 78 1015.8
20260504002030 81 60 0.0 4.0 0.00 0.00 0.00 77 1015.6
20260504001602 81 106 2.0 4.0 0.00 0.00 0.00 77 1015.6
20260504001029 81 107 0.0 4.0 0.00 0.00 0.00 77 1015.5
20260504000530 81 84 1.0 4.0 0.00 0.00 0.00 77 1015.4
20260504000056 81 45 1.0 3.0 0.00 0.00 0.00 77 1015.4
20260503235530 82 23 1.0 4.0 0.00 0.00 0.00 77 1015.3
20260503235028 82 71 1.0 4.0 0.00 0.00 0.00 77 1015.3
20260503234545 82 85 1.0 4.0 0.00 0.00 0.00 76 1015.2
20260503234034 82 54 0.0 7.0 0.00 0.00 0.00 76 1015.2
20260503233532 82 105 1.0 7.0 0.00 0.00 0.00 76 1015.2
20260503233045 82 0 2.0 9.0 0.00 0.00 0.00 76 1015.1
20260503232533 82 0 2.0 10.0 0.00 0.00 0.00 76 1015.1
20260503232033 82 32 3.0 10.0 0.00 0.00 0.00 76 1015.1
20260503231540 82 44 4.0 11.0 0.00 0.00 0.00 76 1015.1
20260503231033 82 19 5.0 12.0 0.00 0.00 0.00 76 1015.0
20260503230530 82 352 4.0 12.0 0.00 0.00 0.00 76 1014.9
20260503230047 83 49 8.0 18.0 0.00 0.00 0.00 76 1015.0
20260503225532 83 352 8.0 18.0 0.00 0.00 0.00 75 1014.8
20260503225033 83 24 8.0 13.0 0.00 0.00 0.00 75 1014.6
20260503224547 83 43 7.0 20.0 0.00 0.00 0.00 75 1014.7
20260503224032 83 12 9.0 20.0 0.00 0.00 0.00 75 1014.7
20260503223531 83 34 9.0 14.0 0.00 0.00 0.00 74 1014.7
20260503223046 83 15 5.0 16.0 0.00 0.00 0.00 74 1014.5
20260503222535 83 360 9.0 16.0 0.00 0.00 0.00 74 1014.5
20260503222035 84 352 8.0 16.0 0.00 0.00 0.00 73 1014.5
20260503221549 84 19 7.0 18.0 0.00 0.00 0.00 73 1014.4
20260503221033 84 27 9.0 18.0 0.00 0.00 0.00 72 1014.4
20260503220533 84 347 10.0 17.0 0.00 0.00 0.00 72 1014.3
20260503220047 84 61 9.0 17.0 0.00 0.00 0.00 72 1014.3
20260503215533 84 21 10.0 15.0 0.00 0.00 0.00 72 1014.3
20260503215033 84 352 6.0 15.0 0.00 0.00 0.00 71 1014.3
20260503214546 84 13 8.0 17.0 0.00 0.00 0.00 71 1014.4
20260503214034 85 25 9.0 17.0 0.00 0.00 0.00 70 1014.3
20260503213530 85 41 9.0 17.0 0.00 0.00 0.00 70 1014.4
20260503213046 84 30 8.0 20.0 0.00 0.00 0.00 71 1014.3
20260503212533 84 352 10.0 22.0 0.00 0.00 0.00 71 1014.3
20260503212034 84 41 13.0 20.0 0.00 0.00 0.00 70 1014.4
20260503211546 85 27 12.0 20.0 0.00 0.00 0.00 69 1014.2
20260503211033 85 5 11.0 20.0 0.00 0.00 0.00 69 1014.2
20260503210534 85 59 11.0 20.0 0.00 0.00 0.00 69 1014.1
20260503210042 85 17 7.0 19.0 0.00 0.00 0.00 70 1014.1
20260503205534 85 28 9.0 18.0 0.00 0.00 0.00 69 1014.1
20260503205030 85 336 9.0 18.0 0.00 0.00 0.00 69 1014.2
20260503204544 85 30 12.0 19.0 0.00 0.00 0.00 70 1014.1
20260503204034 85 5 9.0 19.0 0.00 0.00 0.00 70 1014.1
20260503203534 84 21 11.0 18.0 0.00 0.00 0.00 71 1014.2
20260503203044 85 31 12.0 18.0 0.00 0.00 0.00 71 1014.3
20260503202529 85 24 10.0 20.0 0.00 0.00 0.00 71 1014.2
20260503202030 85 61 10.0 17.0 0.00 0.00 0.00 71 1014.2
20260503201544 85 17 10.0 19.0 0.00 0.00 0.00 71 1014.2
20260503201030 85 336 12.0 19.0 0.00 0.00 0.00 72 1014.2
20260503200530 85 30 10.0 19.0 0.00 0.00 0.00 72 1014.3
20260503200050 85 9 11.0 18.0 0.00 0.00 0.00 72 1014.4
20260503195530 85 27 10.0 17.0 0.00 0.00 0.00 72 1014.4
20260503195032 85 360 8.0 17.0 0.00 0.00 0.00 72 1014.4
20260503194545 85 11 10.0 17.0 0.00 0.00 0.00 72 1014.5
20260503194030 85 321 8.0 19.0 0.00 0.00 0.00 73 1014.6
20260503193530 85 20 10.0 19.0 0.00 0.00 0.00 72 1014.5
20260503193047 85 23 11.0 19.0 0.00 0.00 0.00 73 1014.6
20260503192529 85 37 9.0 17.0 0.00 0.00 0.00 73 1014.8
20260503192028 85 19 10.0 15.0 0.00 0.00 0.00 74 1014.9
20260503191544 85 32 9.0 16.0 0.00 0.00 0.00 75 1015.0
20260503191034 85 20 9.0 15.0 0.00 0.00 0.00 74 1015.0
20260503190529 85 16 9.0 16.0 0.00 0.00 0.00 75 1015.0
20260503190046 85 352 10.0 17.0 0.00 0.00 0.00 75 1015.2
20260503185528 84 332 9.0 17.0 0.00 0.00 0.00 75 1015.2
20260503185030 84 15 10.0 17.0 0.00 0.00 0.00 75 1015.3
20260503184541 84 20 9.0 16.0 0.00 0.00 0.00 75 1015.3
20260503184030 85 21 10.0 16.0 0.00 0.00 0.00 75 1015.3
20260503183529 85 350 8.0 16.0 0.00 0.00 0.00 75 1015.4
20260503183100 84 15 10.0 17.0 0.00 0.00 0.00 74 1015.5
20260503182529 85 39 11.0 17.0 0.00 0.00 0.00 74 1015.5
20260503182029 85 10 9.0 17.0 0.00 0.00 0.00 74 1015.5
20260503181613 85 28 9.0 17.0 0.00 0.00 0.00 74 1015.6
20260503181031 85 32 9.0 16.0 0.00 0.00 0.00 74 1015.7
20260503180530 85 26 10.0 16.0 0.00 0.00 0.00 74 1015.7
20260503180045 85 23 9.0 16.0 0.00 0.00 0.00 74 1015.8
20260503175531 85 345 9.0 16.0 0.00 0.00 0.00 74 1015.9
20260503175030 85 25 10.0 15.0 0.00 0.00 0.00 74 1016.0
20260503174545 84 15 9.0 16.0 0.00 0.00 0.00 75 1016.1
20260503174030 84 36 9.0 18.0 0.00 0.00 0.00 75 1016.1
20260503173529 84 21 10.0 16.0 0.00 0.00 0.00 75 1016.1